H1 CPF 2 NER 2024 9 30 9 274 01 glonass105 H2 0705202 9105 32276 2024 9 30 0 0 0 2024 10 3 23 45 0 900 1 1 0 0 0 1 H9 10 0 60583 0.00000 0 17987960.842 -1828928.045 17991723.205 10 0 60583 900.00000 0 15980226.888 -622989.473 19874386.585 10 0 60583 1800.00000 0 13907302.658 860578.536 21371133.574 10 0 60583 2700.00000 0 11835960.545 2603499.941 22453045.729 10 0 60583 3600.00000 0 9829694.700 4575033.107 23099266.062 10 0 60583 4500.00000 0 7946193.108 6733035.023 23297390.771 10 0 60583 5400.00000 0 6235072.020 9025510.421 23043697.919 10 0 60583 6300.00000 0 4735965.639 11392581.694 22343209.751 10 0 60583 7200.00000 0 3477048.931 13768798.308 21209588.198 10 0 60583 8100.00000 0 2474053.317 16085690.548 19664866.118 10 0 60583 9000.00000 0 1729814.497 18274462.482 17739019.539 10 0 60583 9900.00000 0 1234369.752 20268713.237 15469388.994 10 0 60583 10800.00000 0 965599.323 22007074.479 12899960.631 10 0 60583 11700.00000 0 890384.051 23435655.269 10080520.285 10 0 60583 12600.00000 0 966230.087 24510193.161 7065696.158 10 0 60583 13500.00000 0 1143292.053 25197822.350 3913907.813 10 0 60583 14400.00000 0 1366709.428 25478385.299 686241.134 10 0 60583 15300.00000 0 1579157.686 25345232.990 -2554729.486 10 0 60583 16200.00000 0 1723506.624 24805480.086 -5746149.322 10 0 60583 17100.00000 0 1745473.620 23879703.886 -8826098.706 10 0 60583 18000.00000 0 1596159.528 22601099.082 -11734792.117 10 0 60583 18900.00000 0 1234359.701 21014123.079 -14415737.763 10 0 60583 19800.00000 0 628551.776 19172687.894 -16816835.083 10 0 60583 20700.00000 0 -241524.659 17137973.648 -18891388.773 10 0 60583 21600.00000 0 -1383764.506 14975954.537 -20599019.531 10 0 60583 22500.00000 0 -2793117.798 12754740.175 -21906453.727 10 0 60583 23400.00000 0 -4451560.775 10541843.013 -22788176.437 10 0 60583 24300.00000 0 -6328620.572 8401485.643 -23226934.946 10 0 60583 25200.00000 0 -8382433.543 6392060.185 -23214082.570 10 0 60583 26100.00000 0 -10561294.748 4563845.728 -22749755.647 10 0 60583 27000.00000 0 -12805635.416 2957079.050 -21842879.685 10 0 60583 27900.00000 0 -15050347.013 1600459.121 -20511003.852 10 0 60583 28800.00000 0 -17227355.594 510147.862 -18779966.304 10 0 60583 29700.00000 0 -19268339.289 -310691.282 -16683396.168 10 0 60583 30600.00000 0 -21107475.221 -871797.982 -14262061.274 10 0 60583 31500.00000 0 -22684100.531 -1195167.504 -11563073.975 10 0 60583 32400.00000 0 -23945175.369 -1313879.134 -8638970.403 10 0 60583 33300.00000 0 -24847443.868 -1270451.046 -5546681.333 10 0 60583 34200.00000 0 -25359201.592 -1114792.412 -2346415.274 10 0 60583 35100.00000 0 -25461594.711 -901840.835 899523.574 10 0 60583 36000.00000 0 -25149395.992 -688986.713 4127958.433 10 0 60583 36900.00000 0 -24431225.053 -533395.169 7276079.047 10 0 60583 37800.00000 0 -23329204.109 -489340.478 10282671.518 10 0 60583 38700.00000 0 -21878064.425 -605667.115 13089313.973 10 0 60583 39600.00000 0 -20123742.063 -923485.851 15641514.083 10 0 60583 40500.00000 0 -18121522.941 -1474202.930 17889766.017 10 0 60583 41400.00000 0 -15933815.983 -2277965.904 19790506.453 10 0 60583 42300.00000 0 -13627648.390 -3342591.677 21306951.591 10 0 60583 43200.00000 0 -11271988.152 -4663021.825 22409799.842 10 0 60583 44100.00000 0 -8935005.539 -6221327.890 23077787.725 10 0 60583 45000.00000 0 -6681387.217 -7987266.385 23298089.453 10 0 60583 45900.00000 0 -4569813.866 -9919360.321 23066553.727 10 0 60583 46800.00000 0 -2650704.842 -11966462.393 22387774.234 10 0 60583 47700.00000 0 -964322.046 -14069735.100 21274993.319 10 0 60583 48600.00000 0 460689.971 -16164965.994 19749841.177 10 0 60583 49500.00000 0 1608268.792 -18185122.543 17841915.740 10 0 60583 50400.00000 0 2475365.346 -20063041.137 15588211.193 10 0 60583 51300.00000 0 3071825.144 -21734139.223 13032405.692 10 0 60583 52200.00000 0 3419725.763 -23139038.419 10224021.355 10 0 60583 53100.00000 0 3552199.285 -24225989.885 7217472.030 10 0 60583 54000.00000 0 3511789.708 -24953001.165 4071016.489 10 0 60583 54900.00000 0 3348414.758 -25289575.838 845636.562 10 0 60583 55800.00000 0 3117018.014 -25217993.091 -2396138.581 10 0 60583 56700.00000 0 2875010.386 -24734073.320 -5591439.648 10 0 60583 57600.00000 0 2679608.909 -23847397.068 -8678272.834 10 0 60583 58500.00000 0 2585185.328 -22580967.369 -11596720.280 10 0 60583 59400.00000 0 2640736.695 -20970328.747 -14290102.164 10 0 60583 60300.00000 0 2887585.319 -19062178.765 -16706077.796 10 0 60583 61200.00000 0 3357405.866 -16912529.316 -18797664.235 10 0 60583 62100.00000 0 4070663.905 -14584493.628 -20524152.545 10 0 60583 63000.00000 0 5035533.007 -12145790.628 -21851903.790 10 0 60583 63900.00000 0 6247337.556 -9666070.192 -22755009.090 10 0 60583 64800.00000 0 7688546.425 -7214170.315 -23215800.712 10 0 60583 65700.00000 0 9329319.650 -4855420.141 -23225203.908 10 0 60583 66600.00000 0 11128586.936 -2649101.022 -22782922.207 10 0 60583 67500.00000 0 13035614.445 -646171.262 -21897451.981 10 0 60583 68400.00000 0 14991995.655 1112650.730 -20585925.315 10 0 60583 69300.00000 0 16933983.862 2598364.954 -18873783.520 10 0 60583 70200.00000 0 18795069.265 3794668.476 -16794286.925 10 0 60583 71100.00000 0 20508692.793 4698393.599 -14387869.905 10 0 60583 72000.00000 0 22010982.598 5319387.788 -11701353.320 10 0 60583 72900.00000 0 23243397.817 5679841.153 -8787029.593 10 0 60583 73800.00000 0 24155167.751 5813090.956 -5701638.446 10 0 60583 74700.00000 0 24705423.049 5761954.816 -2505253.837 10 0 60583 75600.00000 0 24864928.438 5576664.585 739895.403 10 0 60583 76500.00000 0 24617343.492 5312489.892 3970647.169 10 0 60583 77400.00000 0 23959958.027 5027153.628 7124144.947 10 0 60583 78300.00000 0 22903871.240 4778150.366 10139068.646 10 0 60583 79200.00000 0 21473607.390 4620082.670 12956832.501 10 0 60583 80100.00000 0 19706184.863 4602129.106 15522725.978 10 0 60583 81000.00000 0 17649678.475 4765751.801 17786975.204 10 0 60583 81900.00000 0 15361336.141 5142740.761 19705704.403 10 0 60583 82800.00000 0 12905329.449 5753677.537 21241779.161 10 0 60583 83700.00000 0 10350232.569 6606882.759 22365516.046 10 0 60583 84600.00000 0 7766334.744 7697891.492 23055245.975 10 0 60583 85500.00000 0 5222897.960 9009478.103 23297721.637 10 0 60584 0.00000 0 2785473.253 10512229.256 23088362.419 10 0 60584 900.00000 0 513384.704 12165641.855 22431332.970 10 0 60584 1800.00000 0 -1542512.704 13919698.209 21339455.131 10 0 60584 2700.00000 0 -3341714.323 15716855.782 19833955.067 10 0 60584 3600.00000 0 -4855506.619 17494367.210 17944050.836 10 0 60584 4500.00000 0 -6067910.696 19186835.347 15706388.143 10 0 60584 5400.00000 0 -6976090.763 20728897.481 13164334.730 10 0 60584 6300.00000 0 -7590211.947 22057927.495 10367146.356 10 0 60584 7200.00000 0 -7932754.579 23116643.760 7369019.730 10 0 60584 8100.00000 0 -8037314.528 23855514.201 4228049.943 10 0 60584 9000.00000 0 -7946940.486 24234858.122 1005111.835 10 0 60584 9900.00000 0 -7712078.430 24226556.646 -2237313.577 10 0 60584 10800.00000 0 -7388209.945 23815299.699 -5436345.316 10 0 60584 11700.00000 0 -7033284.006 22999316.597 -8529918.197 10 0 60584 12600.00000 0 -6705050.645 21790558.692 -11457984.605 10 0 60584 13500.00000 0 -6458409.149 20214325.308 -14163679.042 10 0 60584 14400.00000 0 -6342883.024 18308347.467 -16594422.772 10 0 60584 15300.00000 0 -6400328.784 16121366.482 -18702947.025 10 0 60584 16200.00000 0 -6662975.925 13711265.688 -20448214.768 10 0 60584 17100.00000 0 -7151881.697 11142832.172 -21796223.036 10 0 60584 18000.00000 0 -7875866.954 8485240.981 -22720670.027 10 0 60584 18900.00000 0 -8830979.285 5809365.840 -23203473.766 10 0 60584 19800.00000 0 -10000507.545 3185027.768 -23235131.949 10 0 60584 20700.00000 0 -11355548.747 678295.744 -22814915.491 10 0 60584 21600.00000 0 -12856105.050 -1651048.518 -21950891.471 10 0 60584 22500.00000 0 -14452666.162 -3751776.297 -20659774.347 10 0 60584 23400.00000 0 -16088211.796 -5583113.773 -18966607.631 10 0 60584 24300.00000 0 -17700550.867 -7116200.964 -16904281.506 10 0 60584 25200.00000 0 -19224899.512 -8335046.980 -14512895.185 10 0 60584 26100.00000 0 -20596589.477 -9236942.061 -11838976.022 10 0 60584 27000.00000 0 -21753792.546 -9832309.801 -8934570.469 10 0 60584 27900.00000 0 -22640145.584 -10144006.745 -5856224.744 10 0 60584 28800.00000 0 -23207164.716 -10206100.062 -2663875.644 10 0 60584 29700.00000 0 -23416345.987 -10062176.329 580326.085 10 0 60584 30600.00000 0 -23240863.071 -9763254.524 3813235.840 10 0 60584 31500.00000 0 -22666789.883 -9365393.170 6971953.739 10 0 60584 32400.00000 0 -21693796.191 -8927094.559 9995056.430 10 0 60584 33300.00000 0 -20335286.971 -8506617.428 12823797.163 10 0 60584 34200.00000 0 -18617979.890 -8159312.990 15403250.012 10 0 60584 35100.00000 0 -16580939.189 -7935097.872 17683375.688 10 0 60584 36000.00000 0 -14274107.062 -7876171.150 19619988.315 10 0 60584 36900.00000 0 -11756394.601 -8015071.936 21175604.868 10 0 60584 37800.00000 0 -9093412.462 -8373159.080 22320161.673 10 0 60584 38700.00000 0 -6354935.990 -8959576.514 23031585.204 10 0 60584 39600.00000 0 -3612210.126 -9770747.113 23296207.360 10 0 60584 40500.00000 0 -935205.449 -10790415.783 23109018.449 10 0 60584 41400.00000 0 1610061.751 -11990239.562 22473754.089 10 0 60584 42300.00000 0 3964035.514 -13330899.874 21402815.207 10 0 60584 43200.00000 0 6075850.046 -14763690.501 19917023.212 10 0 60584 44100.00000 0 7905192.599 -16232515.269 18045215.250 10 0 60584 45000.00000 0 9423723.779 -17676212.496 15823687.199 10 0 60584 45900.00000 0 10615997.949 -19031109.745 13295494.732 10 0 60584 46800.00000 0 11479846.934 -20233702.772 10509625.261 10 0 60584 47700.00000 0 12026212.253 -21223347.231 7520056.063 10 0 60584 48600.00000 0 12278433.941 -21944850.902 4384715.978 10 0 60584 49500.00000 0 12271026.428 -22350858.087 1164370.070 10 0 60584 50400.00000 0 12047993.309 -22403926.113 -2078551.741 10 0 60584 51300.00000 0 11660752.104 -22078206.459 -5281159.804 10 0 60584 52200.00000 0 11165756.441 -21360659.275 -8381320.575 10 0 60584 53100.00000 0 10621915.899 -20251749.320 -11318859.661 10 0 60584 54000.00000 0 10087922.371 -18765592.929 -14036728.764 10 0 60584 54900.00000 0 9619595.787 -16929548.447 -16482113.837 10 0 60584 55800.00000 0 9267361.471 -14783265.808 -18607462.812 10 0 60584 56700.00000 0 9073965.891 -12377233.530 -20371412.833 10 0 60584 57600.00000 0 9072527.726 -9770882.397 -21739598.860 10 0 60584 58500.00000 0 9285007.197 -7030323.681 -22685327.736 10 0 60584 59400.00000 0 9721159.098 -4225815.036 -23190104.412 10 0 60584 60300.00000 0 10378014.784 -1429058.698 -23243999.761 10 0 60584 61200.00000 0 11239916.136 1289556.252 -22845852.402 10 0 60584 62100.00000 0 12279101.364 3863653.284 -22003300.027 10 0 60584 63000.00000 0 13456819.210 6233397.456 -20732638.993 10 0 60584 63900.00000 0 14724925.711 8347748.913 -19058514.165 10 0 60584 64800.00000 0 16027897.070 10166347.044 -17013444.364 10 0 60584 65700.00000 0 17305174.382 11660946.820 -14637192.035 10 0 60584 66600.00000 0 18493741.443 12816347.516 -11975989.040 10 0 60584 67500.00000 0 19530826.691 13630775.397 -9081633.477 10 0 60584 68400.00000 0 20356614.688 14115705.080 -6010475.315 10 0 60584 69300.00000 0 20916851.804 14295128.095 -2822311.129 10 0 60584 70200.00000 0 21165235.135 14204300.804 420789.707 10 0 60584 71100.00000 0 21065482.768 13888026.035 3655703.496 10 0 60584 72000.00000 0 20592997.157 13398542.708 6819490.408 10 0 60584 72900.00000 0 19736050.794 12793114.363 9850627.141 10 0 60584 73800.00000 0 18496443.802 12131420.139 12690209.074 10 0 60584 74700.00000 0 16889605.749 11472859.881 15283097.745 10 0 60584 75600.00000 0 14944137.543 10873888.284 17578990.996 10 0 60584 76500.00000 0 12700812.976 10385491.209 19533395.074 10 0 60584 77400.00000 0 10211082.140 10050910.808 21108480.213 10 0 60584 78300.00000 0 7535139.554 9903715.050 22273804.002 10 0 60584 79200.00000 0 4739637.680 9966292.278 23006889.594 10 0 60584 80100.00000 0 1895140.865 10248833.297 23293648.791 10 0 60584 81000.00000 0 -926575.016 10748842.835 23128643.114 10 0 60584 81900.00000 0 -3655266.016 11451200.092 22515178.884 10 0 60584 82800.00000 0 -6224894.070 12328765.212 21465235.382 10 0 60584 83700.00000 0 -8576122.068 13343505.957 19999228.035 10 0 60584 84600.00000 0 -10658528.239 14448097.355 18145611.385 10 0 60584 85500.00000 0 -12432449.618 15587927.604 15940329.380 10 0 60585 0.00000 0 -13870379.580 16703426.596 13426123.421 10 0 60585 900.00000 0 -14957863.518 17732620.682 10651709.455 10 0 60585 1800.00000 0 -15693854.773 18613805.705 7670842.710 10 0 60585 2700.00000 0 -16090519.546 19288228.691 4541282.884 10 0 60585 3600.00000 0 -16172497.715 19702664.432 1323682.349 10 0 60585 4500.00000 0 -15975651.863 19811779.400 -1919582.956 10 0 60585 5400.00000 0 -15545357.166 19580183.294 -5125617.539 10 0 60585 6300.00000 0 -14934404.131 18984081.357 -8232222.236 10 0 60585 7200.00000 0 -14200602.455 18012457.141 -11179098.469 10 0 60585 8100.00000 0 -13404186.895 16667734.752 -13909017.545 10 0 60585 9000.00000 0 -12605134.422 14965891.325 -16368932.279 10 0 60585 9900.00000 0 -11860505.791 12936013.393 -18511009.203 10 0 60585 10800.00000 0 -11221923.708 10619313.982 -20293561.239 10 0 60585 11700.00000 0 -10733294.138 8067649.826 -21681862.574 10 0 60585 12600.00000 0 -10428867.199 5341599.028 -22648829.716 10 0 60585 13500.00000 0 -10331719.891 2508177.857 -23175555.263 10 0 60585 14400.00000 0 -10452725.276 -361709.421 -23251683.701 10 0 60585 15300.00000 0 -10790052.372 -3195982.493 -22875621.471 10 0 60585 16200.00000 0 -11329218.722 -5924146.568 -22054576.682 10 0 60585 17100.00000 0 -12043694.324 -8479989.161 -20804427.045 10 0 60585 18000.00000 0 -12896032.311 -10804100.019 -19149417.879 10 0 60585 18900.00000 0 -13839479.388 -12846109.319 -17121695.404 10 0 60585 19800.00000 0 -14819998.486 -14566550.860 -14760683.755 10 0 60585 20700.00000 0 -15778618.409 -15938272.446 -12112317.477 10 0 60585 21600.00000 0 -16654010.971 -16947334.716 -9228144.278 10 0 60585 22500.00000 0 -17385186.190 -17593361.216 -6164315.665 10 0 60585 23400.00000 0 -17914190.746 -17889325.723 -2980485.640 10 0 60585 24300.00000 0 -18188694.582 -17860786.895 261360.276 10 0 60585 25200.00000 0 -18164355.196 -17544603.797 3498121.886 10 0 60585 26100.00000 0 -17806858.616 -16987188.096 6666822.106 10 0 60585 27000.00000 0 -17093549.993 -16242368.348 9705840.459 10 0 60585 27900.00000 0 -16014584.336 -15368958.247 12556117.265 10 0 60585 28800.00000 0 -14573548.540 -14428132.993 15162304.301 10 0 60585 29700.00000 0 -12787528.426 -13480725.721 17473839.211 10 0 60585 30600.00000 0 -10686618.044 -12584558.764 19445922.818 10 0 60585 31500.00000 0 -8312892.044 -11791922.582 21040380.799 10 0 60585 32400.00000 0 -5718884.239 -11147308.264 22226393.834 10 0 60585 33300.00000 0 -2965635.926 -10685488.363 22981083.197 10 0 60585 34200.00000 0 -120395.080 -10430025.778 23289941.642 10 0 60585 35100.00000 0 2745938.325 -10392272.125 23147102.542 10 0 60585 36000.00000 0 5561515.645 -10570896.448 22555443.190 10 0 60585 36900.00000 0 8256280.394 -10951962.987 21526521.138 10 0 60585 37800.00000 0 10764634.309 -11509553.917 20080345.412 10 0 60585 38700.00000 0 13027919.607 -12206910.453 18244987.196 10 0 60585 39600.00000 0 14996616.026 -12998044.295 16056037.419 10 0 60585 40500.00000 0 16632162.952 -13829751.979 13555921.288 10 0 60585 41400.00000 0 17908332.366 -14643947.947 10793082.352 10 0 60585 42300.00000 0 18812096.607 -15380218.868 7821051.145 10 0 60585 43200.00000 0 19343955.797 -15978492.355 4697415.620 10 0 60585 44100.00000 0 19517711.968 -16381708.284 1482712.535 10 0 60585 45000.00000 0 19359699.823 -16538380.469 -1760739.310 10 0 60585 45900.00000 0 18907506.639 -16404940.783 -4970041.874 10 0 60585 46800.00000 0 18208235.117 -15947766.610 -8082933.688 10 0 60585 47700.00000 0 17316382.149 -15144805.472 -11038995.231 10 0 60585 48600.00000 0 16291422.567 -13986727.345 -13780820.514 10 0 60585 49500.00000 0 15195199.431 -12477554.791 -16255132.089 10 0 60585 50400.00000 0 14089230.581 -10634742.711 -18413817.719 10 0 60585 51300.00000 0 13032044.785 -8488702.599 -20214868.433 10 0 60585 52200.00000 0 12076659.626 -6081789.223 -21623199.645 10 0 60585 53100.00000 0 11268307.431 -3466790.296 -22611339.148 10 0 60585 54000.00000 0 10642505.176 -704980.411 -23159968.405 10 0 60585 54900.00000 0 10223549.952 2136181.185 -23258306.315 10 0 60585 55800.00000 0 10023503.759 4985614.284 -22904327.522 10 0 60585 56700.00000 0 10041710.897 7771337.176 -22104810.516 10 0 60585 57600.00000 0 10264868.824 10423229.303 -20875213.922 10 0 60585 58500.00000 0 10667650.010 12875722.462 -19239382.699 10 0 60585 59400.00000 0 11213848.990 15070308.539 -17229089.262 10 0 60585 60300.00000 0 11858006.443 16957759.214 -14883417.853 10 0 60585 61200.00000 0 12547441.695 18499964.809 -12248003.742 10 0 60585 62100.00000 0 13224607.459 19671315.381 -9374141.903 10 0 60585 63000.00000 0 13829666.624 20459566.380 -6317782.676 10 0 60585 63900.00000 0 14303181.197 20866152.926 -3138434.476 10 0 60585 64800.00000 0 14588798.511 20905940.267 102004.282 10 0 60585 65700.00000 0 14635819.836 20606421.977 3340460.292 10 0 60585 66600.00000 0 14401541.512 20006401.017 6513922.639 10 0 60585 67500.00000 0 13853268.543 19154210.801 9560677.017 10 0 60585 68400.00000 0 12969914.725 18105552.906 12421511.860 10 0 60585 69300.00000 0 11743121.171 16921044.150 15040872.126 10 0 60585 70200.00000 0 10177845.769 15663577.743 17367937.904 10 0 60585 71100.00000 0 8292398.646 14395610.607 19357606.930 10 0 60585 72000.00000 0 6117922.177 13176491.543 20971362.308 10 0 60585 72900.00000 0 3697337.370 12059942.562 22178009.434 10 0 60585 73800.00000 0 1083800.626 11091798.635 22954268.931 10 0 60585 74700.00000 0 -1661264.928 10308099.790 23285215.301 10 0 60585 75600.00000 0 -4470482.004 9733614.285 23164554.112 10 0 60585 76500.00000 0 -7273080.212 9380853.316 22594733.466 10 0 60585 77400.00000 0 -9997600.235 9249617.120 21586888.510 10 0 60585 78300.00000 0 -12574630.139 9327090.203 20160620.657 10 0 60585 79200.00000 0 -14939461.715 9588480.702 18343616.030 10 0 60585 80100.00000 0 -17034558.044 9998176.368 16171110.371 10 0 60585 81000.00000 0 -18811731.314 10511368.380 13685210.385 10 0 60585 81900.00000 0 -20233941.645 11076074.789 10934083.947 10 0 60585 82800.00000 0 -21276643.243 11635478.791 7971034.112 10 0 60585 83700.00000 0 -21928622.622 12130483.842 4853474.017 10 0 60585 84600.00000 0 -22192294.598 12502378.417 1641821.738 10 0 60585 85500.00000 0 -22083444.024 12695498.405 -1601664.081 10 0 60586 0.00000 0 -21630424.343 12659774.994 -4814085.483 10 0 60586 900.00000 0 -20872846.205 12353060.294 -7933122.078 10 0 60586 1800.00000 0 -19859811.743 11743132.179 -10898235.769 10 0 60586 2700.00000 0 -18647767.615 10809292.855 -13651845.734 10 0 60586 3600.00000 0 -17298067.311 9543492.525 -16140446.497 10 0 60586 4500.00000 0 -15874344.714 7950929.321 -18315648.980 10 0 60586 5400.00000 0 -14439809.151 6050098.454 -20135123.914 10 0 60586 6300.00000 0 -13054575.410 3872286.524 -21563429.155 10 0 60586 7200.00000 0 -11773140.859 1460530.139 -22572704.611 10 0 60586 8100.00000 0 -10642115.662 -1131919.580 -23143221.070 10 0 60586 9000.00000 0 -9698301.516 -3843564.339 -23263771.927 10 0 60586 9900.00000 0 -8967199.822 -6606977.321 -22931899.768 10 0 60586 10800.00000 0 -8462012.191 -9351377.795 -22153952.870 10 0 60586 11700.00000 0 -8183175.557 -12005355.299 -20944969.880 10 0 60586 12600.00000 0 -8118451.679 -14499630.432 -19328394.206 10 0 60586 13500.00000 0 -8243567.373 -16769737.405 -17335623.023 10 0 60586 14400.00000 0 -8523378.495 -18758516.403 -15005399.025 10 0 60586 15300.00000 0 -8913508.327 -20418311.464 -12383056.383 10 0 60586 16200.00000 0 -9362390.692 -21712781.729 -9519635.398 10 0 60586 17100.00000 0 -9813630.708 -22618250.084 -6470883.219 10 0 60586 18000.00000 0 -10208582.298 -23124532.647 -3296160.592 10 0 60586 18900.00000 0 -10489032.168 -23235214.640 -57276.694 10 0 60586 19800.00000 0 -10599875.335 -22967361.715 3182724.256 10 0 60586 20700.00000 0 -10491667.563 -22350679.907 6360799.778 10 0 60586 21600.00000 0 -10122945.514 -21426160.880 9415144.077 10 0 60586 22500.00000 0 -9462215.412 -20244271.005 12286396.109 10 0 60586 23400.00000 0 -8489525.451 -18862762.024 14918796.432 10 0 60586 24300.00000 0 -7197555.089 -17344196.851 17261269.969 10 0 60586 25200.00000 0 -5592175.061 -15753295.648 19268413.638 10 0 60586 26100.00000 0 -3692454.473 -14154214.405 20901370.055 10 0 60586 27000.00000 0 -1530114.674 -12607870.442 22128571.165 10 0 60586 27900.00000 0 851547.345 -11169426.638 22926338.476 10 0 60586 28800.00000 0 3399221.147 -9886038.956 23279329.449 10 0 60586 29700.00000 0 6051565.957 -8794960.302 23180822.721 10 0 60586 30600.00000 0 8741532.721 -7922078.489 22632837.747 10 0 60586 31500.00000 0 11398929.458 -7280947.852 21646087.482 10 0 60586 32400.00000 0 13953124.456 -6872353.344 20239765.637 10 0 60586 33300.00000 0 16335776.333 -6684423.923 18441172.849 10 0 60586 34200.00000 0 18483478.931 -6693289.328 16285188.927 10 0 60586 35100.00000 0 20340212.482 -6864251.871 13813600.961 10 0 60586 36000.00000 0 21859500.386 -7153423.629 11074299.655 10 0 60586 36900.00000 0 23006182.816 -7509760.101 8120358.667 10 0 60586 37800.00000 0 23757734.066 -7877404.884 5009013.988 10 0 60586 38700.00000 0 24105069.202 -8198246.859 1800562.288 10 0 60586 39600.00000 0 24052806.579 -8414582.324 -1442800.983 10 0 60586 40500.00000 0 23618975.283 -8471769.928 -4658181.784 10 0 60586 41400.00000 0 22834179.620 -8320766.269 -7783203.008 10 0 60586 42300.00000 0 21740255.346 -7920434.776 -10757211.904 10 0 60586 43200.00000 0 20388473.657 -7239529.759 -13522456.036 10 0 60586 44100.00000 0 18837367.843 -6258270.879 -16025204.913 10 0 60586 45000.00000 0 17150273.394 -4969440.321 -18216795.382 10 0 60586 45900.00000 0 15392684.410 -3378954.786 -20054580.349 10 0 60586 46800.00000 0 13629536.850 -1505886.340 -21502762.285 10 0 60586 47700.00000 0 11922532.358 618070.794 -22533095.053 10 0 60586 48600.00000 0 10327614.683 2949667.264 -23125440.248 10 0 60586 49500.00000 0 8892704.399 5435656.801 -23268166.872 10 0 60586 50400.00000 0 7655786.891 8014782.266 -22958386.163 10 0 60586 51300.00000 0 6643433.772 10620108.180 -22202016.489 10 0 60586 52200.00000 0 5869819.820 13181603.528 -21013676.388 10 0 60586 53100.00000 0 5336276.681 15628867.863 -19416407.175 10 0 60586 54000.00000 0 5031402.022 17893887.313 -17441229.813 10 0 60586 54900.00000 0 4931719.282 19913705.455 -15126544.050 10 0 60586 55800.00000 0 5002859.850 21632897.175 -12517381.133 10 0 60586 56700.00000 0 5201217.115 23005741.651 -9664524.448 10 0 60586 57600.00000 0 5476001.681 23998003.016 -6623515.322 10 0 60586 58500.00000 0 5771609.708 24588243.747 -3453563.852 10 0 60586 59400.00000 0 6030202.873 24768615.553 -216386.717 10 0 60586 60300.00000 0 6194389.300 24545094.837 3025004.388 10 0 60586 61200.00000 0 6209890.468 23937153.395 6207538.941 10 0 60586 62100.00000 0 6028079.843 22976879.202 9269323.148 10 0 60586 63000.00000 0 5608284.593 21707585.466 12150849.848 10 0 60586 63900.00000 0 4919752.151 20181967.809 14796158.359 10 0 60586 64800.00000 0 3943197.902 18459888.395 17153921.334 10 0 60586 65700.00000 0 2671868.353 16605881.199 19178437.461 10 0 60586 66600.00000 0 1112074.851 14686483.979 20830511.121 10 0 60586 67500.00000 0 -716824.610 12767509.096 22078202.691 10 0 60586 68400.00000 0 -2782994.775 10911367.361 22897436.040 10 0 60586 69300.00000 0 -5043219.980 9174556.131 23272452.627 10 0 60586 70200.00000 0 -7444482.919 7605415.524 23196104.714 10 0 60586 71100.00000 0 -9925960.036 6242244.901 22669983.141 10 0 60586 72000.00000 0 -12421351.151 5111856.543 21704378.158 10 0 60586 72900.00000 0 -14861447.383 4228625.057 20318074.686 10 0 60586 73800.00000 0 -17176831.768 3594070.456 18537986.245 10 0 60586 74700.00000 0 -19300601.482 3196990.798 16398634.546 10 0 60586 75600.00000 0 -21170999.725 3014137.560 13941484.463 10 0 60586 76500.00000 0 -22733848.894 3011404.545 11214146.555 10 0 60586 77400.00000 0 -23944684.635 3145479.871 8269461.870 10 0 60586 78300.00000 0 -24770502.554 3365891.375 5164485.882 10 0 60586 79200.00000 0 -25191045.096 3617359.322 1959390.459 10 0 60586 80100.00000 0 -25199574.993 3842357.394 -1283695.512 10 0 60586 81000.00000 0 -24803102.814 3983774.043 -4501884.887 10 0 60586 81900.00000 0 -24022058.777 3987561.880 -7632747.552 10 0 60586 82800.00000 0 -22889422.087 3805263.020 -10615518.768 10 0 60586 83700.00000 0 -21449343.701 3396303.293 -13392277.223 10 0 60586 84600.00000 0 -19755319.609 2729957.679 -15909069.877 10 0 60586 85500.00000 0 -17867990.587 1786902.925 -18116961.620 99